User: anonymous   Login
Location: Boca do Mato
(22.9085°S, 43.2930°W)
Time: 10:04:13
(UTC+00:00)
Language:

Cosmos 1655 Rocket - Orbit

View from above orbital plane
View from above orbital plane
View from above satellite
View from above satellite

Ground track
Ground track

The orbit data is extracted from the following two-line orbital elements,

1 15752U 85041B   20271.89324396 -.00000003 +00000-0 -19875-4 0  9993
2 15752 082.9492 142.3345 0025085 038.7357 321.5591 13.73119372770110
Epoch (UTC): 27 September 2020 21:26:16
Eccentricity: 0.0025085
inclination: 82.9492°
perigee height: 970 km
apogee height: 1007 km
right ascension of ascending node: 142.3345°
argument of perigee: 38.7357°
revolutions per day: 13.73119372
mean anomaly at epoch: 321.5591°
orbit number at epoch: 77011

The dashed part of the orbit path shows where the satellite is in the earth's shadow,  

DLR